Погода в Калаундре

Австралия     26°47′49″S   153°08′12″E
темп.,
°C
ветер,
м/с
пор.,
м/с
влажн.,
%
обл.,
%
осадки,
мм/ч
давл.,
гПа
погр.,
м
30 ноября, вт
вт3001:00+23вюв81092100 4.1 1014595
04:00+23вюв7892100 12.4 1013475
07:00+23в6892100 9.3 1015468
10:00+23всв5587100 14.4 1014324
13:00+24св4584100 1.9 1012439
16:00+24всв458299 3.3 1011344
19:00+24всв5782100 2.6 1012376
22:00+24всв3478100 4.9 1013157
1 декабря, ср
ср101:00+23зсз2380100 1.3 1011131
04:00+22зюз3291100 3.7 1011173
07:00+22юз3389100 0.2 1012199
10:00+23ю2286100 0.3 1012192
13:00+24юв44840 0.1 1010272
16:00+24в32835 0.1 1010274
19:00+25юв22824 0.3 1011272
22:00+24ю33855 0.3 1012259
2 декабря, чт
чт201:00+24ю558718 0.0 1010446
04:00+24ююв878643 0.3 1011608
07:00+24ююв888499 0.5 1013677
10:00+24ююв988347 1.1 1013689
13:00+24ююв888010 0.1 1012628
16:00+24юв897912 0.1 1012724
19:00+24юв887928 0.0 1014885
22:00+24юв897720 0.0 1014838
3 декабря, пт
пт301:00+24ююв99767 0.0 1013810
04:00+23ююв9107925 0.0 1013882
07:00+23ююв9107638 0.0 1015904
10:00+23ююв99750 0.0 1015802
13:00+23ююв78720 0.0 1014673
16:00+24юв88720 0.0 1012642
19:00+24юв88690 0.0 1014738
22:00+24ююв79720 0.0 1014894
4 декабря, сб
сб401:00+23ююв910710 0.0 1013971
04:00+23ююв88720 0.0 1012867
07:00+23ююв77734 0.0 1013927
10:00+23ююв55730 0.0 1013673
13:00+23юв55700 0.0 1011476
16:00+24в44660 0.0 1009511
19:00+24вюв556796 0.0 1011735
22:00+23юв897455 0.4 10131109